sat.trackr.live / text

‹ back to catalog

STARLINK-4588

NORAD 53641 · 2022-104BF

PAYLOAD ACTIVE UNKNOWN

§ Identity

Operator
Country
US
Launch date
2022-08-28
Launch site
AFETR
Launch vehicle
Mass (kg)
RCS (m²)

Purposes: comms

External: N2YO · Heavens-Above · Gunter

§ Orbital elements

Epoch: 2026-09-20T16:46:23.143872Z

Period
94.01 min
Inclination
53.1592°
Eccentricity
0.0001312
Mean motion
15.31706835 rev/d
Perigee alt
469.8 km
Apogee alt
471.6 km
Semi-major
6,848.9 km
B*
7.6720e-5
RAAN
56.9072°
Arg perigee
89.2779°
Mean anomaly
270.8373°
Rev number
22,582

§ Raw data

STARLINK-45881 53641U 22104BF  26263.69887898  .00002017  00000+0  76720-4 0  99952 53641  53.1592  56.9072 0001312  89.2779 270.8373 15.31706835225822

JSON: /api/v1/satellites/53641 · /tle

For live sub-satellite position, see the globe view (requires WebGL).

§ Visibility from observer

Set your observer location to see the next 7 days of passes ≥ 10°. The values pass through the URL so the page stays shareable.

No JS? Fill the form by hand. The geolocation button needs JavaScript.